ISIS 1

Last updated on Sat Jul 05 2025 00:02:13 GMT+0000 (Coordinated Universal Time)

1 03669U 69009A 25185.52004313 .00000088 00000+0 62436-4 0 9997 2 03669 88.4513 182.3572 1707071 230.1233 113.7046 11.30276446320494
UTC large
Height (km)
Speed (km/s)
/
Latitude / Longitude
Inclination (degrees)
Orbital Period (minutes)
Azimuth
Elevation
Range (km)
Doppler Factor

Next 0 passes for location: London (51.5072 / 0.1276)

Sorry there are no passes over London.